Location: Napoli
(40.8639°N, 14.2562°E)
Time: 07:05:03
(UTC+02:00)

ISS - Visible Passes

Search period start: 23 May 2017 00:00
Search period end: 02 June 2017 00:00
Orbit: 402 x 409 km, 51.6° (Epoch: 23 May)

Date Brightness Start Highest point End Pass type
(mag) Time Alt. Az. Time Alt. Az. Time Alt. Az.
23 May -0.5 01:15:26 10° NW 01:17:13 14° N 01:19:01 10° NNE visible
23 May -0.6 02:52:43 10° NNW 02:54:46 15° NNE 02:56:48 10° NE visible
23 May -2.8 04:28:39 10° NW 04:31:52 49° NNE 04:35:02 10° ESE visible
23 May -2.2 21:09:35 10° S 21:11:41 16° SE 21:13:47 10° E visible
23 May -3.2 22:44:38 10° WSW 22:47:52 57° NNW 22:51:08 10° NE visible
24 May -0.7 00:22:45 10° NW 00:24:54 16° NNW 00:27:04 10° NNE visible
24 May -0.4 02:00:44 10° NNW 02:02:26 13° N 02:04:08 10° NE visible
24 May -1.8 03:36:46 10° NW 03:39:43 30° NNE 03:42:40 10° E visible
24 May -4.0 21:52:32 10° SW 21:55:49 77° SE 21:59:07 10° ENE visible
24 May -1.1 23:30:03 10° WNW 23:32:37 21° NNW 23:35:12 10° NNE visible
25 May -0.3 01:08:31 10° NNW 01:10:04 13° N 01:11:38 10° NNE visible
25 May -1.1 02:44:54 10° NNW 02:47:31 21° NNE 02:50:06 10° ENE visible
25 May -4.0 04:21:01 10° WNW 04:24:17 71° SW 04:27:31 10° SE visible
25 May -3.3 21:00:45 10° SSW 21:03:50 38° SE 21:06:56 10° ENE visible
25 May -1.7 22:37:27 10° W 22:40:23 29° NNW 22:43:19 10° NE visible
26 May -0.4 00:16:01 10° NW 00:17:42 13° N 00:19:23 10° NNE visible
26 May -0.7 01:53:01 10° NNW 01:55:13 16° NNE 01:57:25 10° ENE visible
26 May -3.3 03:28:58 10° NW 03:32:13 61° NNE 03:35:28 10° ESE visible
26 May -2.6 21:45:01 10° WSW 21:48:12 46° NNW 21:51:25 10° NE visible
26 May -0.5 23:23:19 10° NW 23:25:20 15° NNW 23:27:21 10° NNE visible
27 May -0.5 01:01:02 10° NNW 01:02:52 14° N 01:04:41 10° NE visible
27 May -2.2 02:37:01 10° NW 02:40:05 35° NNE 02:43:08 10° E visible
27 May -2.9 04:13:39 10° WNW 04:16:30 27° SW 04:19:19 10° SSE visible
27 May -3.7 20:52:48 10° SW 20:56:06 84° NNW 20:59:24 10° NE visible
27 May -0.8 22:30:34 10° WNW 22:33:00 19° NNW 22:35:25 10° NNE visible
28 May -0.5 00:08:53 10° NNW 00:10:28 13° N 00:12:03 10° NNE visible
28 May -1.3 01:45:07 10° NW 01:47:20 23° N 01:47:20 23° N visible
28 May -1.3 21:37:53 10° W 21:40:42 25° NNW 21:43:30 10° NE visible
28 May -0.5 23:16:27 10° NNW 23:18:03 13° N 23:19:40 10° NNE visible
29 May -1.0 00:53:11 10° NNW 00:55:32 18° NNE 00:55:53 18° NNE visible
29 May -0.7 22:23:46 10° NW 22:25:38 14° N 22:27:31 10° NNE visible
30 May -0.7 00:01:13 10° NNW 00:03:10 15° N 00:04:58 11° NE visible
30 May -0.8 01:37:10 10° NW 01:37:35 13° NW 01:37:35 13° NW visible
30 May -0.8 21:30:58 10° WNW 21:33:14 17° NNW 21:35:31 10° NNE visible
30 May -0.7 23:09:06 10° NNW 23:10:45 13° N 23:12:24 10° NE visible
31 May -1.2 00:45:12 10° NW 00:46:50 21° NNW 00:46:50 21° NNW visible
31 May -0.7 22:16:44 10° NNW 22:18:18 13° N 22:19:52 10° NNE visible
31 May -1.4 23:53:15 10° NNW 23:55:46 20° NNE 23:56:12 19° NNE visible
01 Jun -0.8 21:24:05 10° NW 21:25:50 14° N 21:27:36 10° NNE visible
01 Jun -0.9 23:01:15 10° NNW 23:03:22 16° NNE 23:05:28 10° NE visible
